Myrtle Beach, SC

6:58 PM EST on December 16, 2017 (GMT -0500)
Myrtle Beach International

Weather History for KMYR - March, 2013

Change the Weather History Date:

Tuesday, March 12, 2013

  Actual Average Record
Temperature  
Mean Temperature 62 °F -  
Max Temperature 69 °F 61 °F 83 °F (1990)
Min Temperature 55 °F 42 °F 28 °F (1998)
Degree Days  
Heating Degree Days 3    
Growing Degree Days 12 (Base 50)    
Moisture  
Dew Point 57 °F    
Average Humidity 85    
Maximum Humidity 100    
Minimum Humidity 72    
Precipitation  
Precipitation 0.03 in - - ()
Sea Level Pressure  
Sea Level Pressure 29.88 in    
Wind  
Wind Speed 13 mph (SSW)    
Max Wind Speed 17 mph    
Max Gust Speed 23 mph    
Visibility 8 miles    
Events Rain    
Averages and records for this station are not official NWS values.
T = Trace of Precipitation, MM = Missing Value Source: NWS Daily Summary

Daily Weather History Graph

Daily Weather History Graph

Search for Another Location

Airport or City:

Trip Planner

Search our weather history database for the weather conditions in past years. The results will help you decide how hot, cold, wet, or windy it might be!

Date:

Astronomy

Mar. 12, 2013 Rise Set
Actual Time 7:29 AM EDT 7:21 PM EDT
Civil Twilight 7:04 AM EDT 7:46 PM EDT
Nautical Twilight 6:36 AM EDT 8:15 PM EDT
Astronomical Twilight 6:07 AM EDT 8:44 PM EDT
Moon 7:39 AM EDT (3/12) 8:28 PM EDT (3/12)
Length of Visible Light 12h 41m
Length of Day
11h 51m
New Moon, 1% of the Moon is Illuminated
Mar 12
New Moon
Mar 19
First Quarter
Mar 27
Full
Apr 3
Last Quarter
Apr 10
New

Hourly Weather History & Observations

Time (EDT) Temp. Dew Point Humidity Pressure Visibility Wind Dir Wind Speed Gust Speed Precip Events Conditions
12:15 AM 60.8 °F 55.4 °F 82% 29.95 in 10.0 mi SSE 16.1 mph - N/A   Mostly Cloudy
12:35 AM 60.8 °F 55.4 °F 82% 29.96 in 10.0 mi SSE 13.8 mph - N/A   Overcast
12:55 AM 59.0 °F 55.4 °F 88% 29.95 in 10.0 mi SSE 16.1 mph - N/A   Mostly Cloudy
1:15 AM 59.0 °F 55.4 °F 88% 29.94 in 10.0 mi SSE 16.1 mph - N/A   Mostly Cloudy
1:35 AM 60.8 °F 57.2 °F 88% 29.93 in 10.0 mi SSE 17.3 mph - N/A   Mostly Cloudy
1:55 AM 59.0 °F 55.4 °F 88% 29.92 in 10.0 mi SSE 16.1 mph - N/A   Mostly Cloudy
2:15 AM 59.0 °F 57.2 °F 94% 29.91 in 10.0 mi SSE 13.8 mph - N/A   Mostly Cloudy
2:35 AM 60.8 °F 57.2 °F 88% 29.91 in 10.0 mi SSE 16.1 mph - N/A   Scattered Clouds
2:55 AM 60.8 °F 57.2 °F 88% 29.91 in 10.0 mi South 15.0 mph 21.9 mph N/A   Mostly Cloudy
3:15 AM 62.6 °F 57.2 °F 82% 29.91 in 10.0 mi South 16.1 mph 21.9 mph N/A   Mostly Cloudy
3:35 AM 60.8 °F 57.2 °F 88% 29.89 in 10.0 mi SSE 16.1 mph 23.0 mph N/A   Overcast
3:55 AM 60.8 °F 57.2 °F 88% 29.88 in 10.0 mi South 12.7 mph 21.9 mph N/A   Mostly Cloudy
4:15 AM 60.8 °F 57.2 °F 88% 29.87 in 10.0 mi South 11.5 mph 21.9 mph N/A   Mostly Cloudy
4:35 AM 62.6 °F 57.2 °F 82% 29.87 in 10.0 mi South 11.5 mph 18.4 mph N/A   Scattered Clouds
4:55 AM 62.6 °F 57.2 °F 82% 29.88 in 10.0 mi SSW 8.1 mph - N/A   Mostly Cloudy
5:15 AM 60.8 °F 57.2 °F 88% 29.88 in 9.0 mi South 8.1 mph - 0.02 in   Mostly Cloudy
5:35 AM 60.8 °F 59.0 °F 94% 29.88 in 10.0 mi South 8.1 mph - 0.03 in   Mostly Cloudy
5:55 AM 62.6 °F 57.2 °F 82% 29.87 in 9.0 mi South 10.4 mph - 0.03 in   Overcast
6:15 AM 60.8 °F 57.2 °F 88% 29.87 in 3.0 mi South 13.8 mph - N/A Rain Rain
6:50 AM 60.8 °F 57.2 °F 88% 29.87 in 3.0 mi South 11.5 mph - N/A Rain Rain
7:50 AM 60.8 °F 60.8 °F 100% 29.87 in 3.0 mi SSW 9.2 mph - N/A Rain Light Rain
8:50 AM 60.8 °F 57.2 °F 88% 29.87 in 3.0 mi South 9.2 mph - N/A   Overcast
9:45 AM 60.8 °F 59.0 °F 94% 29.87 in 3.0 mi South 13.8 mph - N/A   Overcast
10:50 AM 60.8 °F 59.0 °F 94% 29.87 in 5.0 mi South 9.2 mph - N/A   Overcast
11:45 AM 62.6 °F 60.8 °F 94% 29.88 in 5.0 mi SW 9.2 mph - N/A   Overcast
12:50 PM 66.2 °F 62.6 °F 88% 29.87 in 10.0 mi WSW 9.2 mph - N/A   Overcast
1:45 PM 69.8 °F 60.8 °F 73% 29.85 in 10.0 mi WSW 17.3 mph - N/A   Overcast
2:48 PM 68.0 °F 59.0 °F 73% 29.83 in 8.0 mi WSW 17.3 mph - N/A   Overcast
3:45 PM 64.4 °F 59.0 °F 83% 29.81 in 10.0 mi SSW 17.3 mph 23.0 mph N/A   Overcast
4:48 PM 66.2 °F 60.8 °F 83% 29.79 in 10.0 mi SSW 11.5 mph - N/A   Mostly Cloudy
5:45 PM 68.0 °F 60.8 °F 78% 29.79 in 10.0 mi SSW 11.5 mph - N/A   Scattered Clouds
6:55 PM 62.6 °F 59.0 °F 88% 29.81 in 10.0 mi SSW 9.2 mph - N/A   Partly Cloudy
7:50 PM 60.8 °F 57.2 °F 88% 29.84 in 7.0 mi SW 5.8 mph - N/A   Clear
8:46 PM 55.4 °F 53.6 °F 94% 29.85 in 7.0 mi WSW 5.8 mph - N/A   Clear
9:45 PM 59.0 °F 51.8 °F 77% 29.88 in 7.0 mi West 6.9 mph - N/A   Clear
11:15 PM 55.4 °F 46.4 °F 72% 29.91 in 10.0 mi West 8.1 mph - N/A   Clear
11:35 PM 55.4 °F 46.4 °F 72% 29.91 in 10.0 mi West 6.9 mph - N/A   Clear
11:55 PM 55.4 °F 46.4 °F 72% 29.92 in 10.0 mi WNW 8.1 mph - N/A   Clear